This demonstration page uses our WeatherBlox Daily Observations layout. Learn more.

Left ArrowRight Arrow

Hourly Observations for January 9, 2018

Temp ( °F °C ) Dew Point ( °F °C ) Humidity (%) Winds ( mph kmh ) Pressure ( in mb ) Visibility ( mi km ) Precip ( " mm )
12:56 am 00:56 Clear 40 4.4 27 -2.8 60 60 SSW 12 19 29.96 1015 10 16 0.00 0.00
1:56 am 01:56 Clear 37 2.8 26 -3.3 65 65 S 9 15 29.94 1014 10 16 0.00 0.00
2:56 am 02:56 Clear 37 2.8 25 -3.9 62 62 S 10 17 29.94 1014 10 16 0.00 0.00
3:56 am 03:56 Clear 36 2.2 25 -3.9 64 64 S 12 19 29.93 1013 10 16 0.00 0.00
4:56 am 04:56 Clear 36 2.2 25 -3.9 64 64 S 10 17 29.92 1013 10 16 0.00 0.00
5:56 am 05:56 Clear 34 1.1 25 -3.9 70 70 SSE 6 9 29.91 1013 10 16 0.00 0.00
6:56 am 06:56 Clear 33 0.6 26 -3.3 75 75 S 10 17 29.92 1013 10 16 0.00 0.00
7:56 am 07:56 Clear 35 1.7 26 -3.3 70 70 S 10 17 29.90 1013 10 16 0.00 0.00
8:56 am 08:56 Sunny 36 2.2 27 -2.8 70 70 S 13 20 29.90 1012 10 16 0.00 0.00
9:56 am 09:56 Sunny 38 3.3 28 -2.2 68 68 S 9 15 29.91 1013 10 16 0.00 0.00
10:56 am 10:56 Sunny 41 5 28 -2.2 60 60 S 10 17 29.88 1012 10 16 0.00 0.00
11:56 am 11:56 Sunny 46 7.8 29 -1.7 51 51 S 14 22 29.83 1010 10 16 0.00 0.00
12:56 pm 12:56 Sunny 49 9.4 30 -1.1 48 48 S 15 24 29.79 1009 10 16 0.00 0.00
1:56 pm 13:56 Sunny 51 10.6 30 -1.1 44 44 SSW 14 22 29.77 1008 10 16 0.00 0.00
2:56 pm 14:56 Sunny 52 11.1 30 -1.1 43 43 S 14 22 29.75 1007 10 16 0.00 0.00
3:56 pm 15:56 Sunny 52 11.1 30 -1.1 43 43 S 12 19 29.75 1007 10 16 0.00 0.00
4:56 pm 16:56 Sunny 49 9.4 30 -1.1 48 48 SSW 8 13 29.76 1008 10 16 0.00 0.00
5:56 pm 17:56 Clear 44 6.7 29 -1.7 55 55 SSE 6 9 29.76 1008 10 16 0.00 0.00
6:56 pm 18:56 Clear 38 3.3 28 -2.2 68 68 S 10 17 29.76 1008 10 16 0.00 0.00
7:56 pm 19:56 Clear 37 2.8 27 -2.8 67 67 S 8 13 29.74 1007 10 16 0.00 0.00
8:56 pm 20:56 Clear 36 2.2 28 -2.2 73 73 S 9 15 29.75 1007 10 16 0.00 0.00
9:56 pm 21:56 Clear 35 1.7 28 -2.2 76 76 S 8 13 29.72 1006 10 16 0.00 0.00
10:56 pm 22:56 Clear 36 2.2 28 -2.2 73 73 SSW 9 15 29.70 1006 10 16 0.00 0.00
11:56 pm 23:56 Clear 32 0 27 -2.8 82 82 S 7 11 29.69 1005 10 16 0.00 0.00

Powered by AerisWeather